Regional Weather Roundup
Issued by NWS

Home | Current Version | Previous Version | Graphics & Text | Print | Product List | Glossary Off
Versions: 1 2 3 4 5 6 7 8 9 10 11 12 13 14 15 16 17 18 19 20 21 22 23 24 25 26 27 28 29 30 31 32 33 34 35 36 37 38 39 40 41 42 43 44 45 46 47 48 49 50

317
ASUS43 KMPX 221610
RWRMN
WEATHER ROUNDUP FOR MINNESOTA
NATIONAL WEATHER SERVICE TWIN CITIES/CHANHASSEN MN
1000 AM CST SUN JAN 22 2017


NOTE: "FAIR" INDICATES FEW OR NO CLOUDS BELOW 12,000 FEET WITH NO
SIGNIFICANT WEATHER AND/OR OBSTRUCTIONS TO VISIBILITY. N/A MEANS
CURRENT SKY AND/OR WEATHER CONDITIONS ARE NOT AVAILABLE.

MNZ060>063-068>070-221700-
   Twin Cities Metro

CITY           SKY/WX    TMP DP  RH WIND       PRES   REMARKS
TWIN CITIES    CLOUDY    37  34  89 NW6       29.71R
ST PAUL        CLOUDY    36  36 100 NW3       29.71R
CRYSTAL        CLOUDY    36  33  89 N5        29.70R
BLAINE         CLOUDY    37  37 100 NW5       29.70R FOG
LAKEVILLE      CLOUDY    34  34 100 NW3       29.70R FOG
EDEN PRAIRIE   CLOUDY    37  35  92 N6        29.69R FOG
SOUTH ST PAUL  CLOUDY    36  36  99 CALM      29.70R
LAKE ELMO      CLOUDY    36  36 100 CALM      29.70R FOG
$$
MNZ001>005-007-008-013>017-022>024-027-028-221700-
   Northwest Minnesota

CITY           SKY/WX    TMP DP  RH WIND       PRES   REMARKS
BEMIDJI        FOG       32  32 100 CALM      29.69R VSB 1/4
HALLOCK        FOG       34  34 100 CALM      29.70R VSB<1/4
ROSEAU         HAZE      34  28  80 CALM      29.70R VSB 1/4
WARROAD        FOG       34  28  80 CALM      29.71R VSB<1/4
THIEF RVR FALL CLOUDY    35  34  96 CALM      29.71R
CROOKSTON      CLOUDY    34  34 100 NW5       29.73R FOG     WCI  30
FOSSTON        FOG       34  34 100 CALM      29.71R VSB<1/4
DETROIT LAKES  FOG       34  34 100 W6        29.73R VSB 1/4 WCI  29
MOORHEAD       FOG       34  32  93 W6        29.74R VSB 1   WCI  29
PARK RAPIDS    CLOUDY    34  32  92 CALM      29.69R FOG
MAHNOMEN       FOG       32  32  99 W5        29.70R VSB 1/4 WCI  28
$$
MNZ006-009>011-018-025>026-221700-
   North Central Minnesota

CITY           SKY/WX    TMP DP  RH WIND       PRES   REMARKS
BAUDETTE       CLOUDY    34  34 100 CALM      29.69R FOG
FLAG ISLAND    FOG       34  32  93 CALM      29.70R VSB 3/4
INTL FALLS     FOG       34  33  96 N3        29.68R VSB 1/4
WASKISH        FOG       34  34 100 CALM      29.69S VSB 1/2
BIG FORK       CLOUDY    36  34  93 CALM      29.68R FOG
LONGVILLE      FOG       34  34 100 W3        29.69R VSB 1/4
GRAND RAPIDS   FOG       35  34  96 W5        29.70R VSB 1/4 WCI  31
CRANE LAKE     CLOUDY    32  30  93 CALM      29.69S
ORR            LGT RAIN  34  30  86 CALM      29.65R
COOK           CLOUDY    34  34 100 CALM      29.67R
WALKER         CLOUDY    33  33  99 W5        29.70R FOG     WCI  28
$$
MNZ012-019>021-037-221700-
   Northeast Minnesota

CITY           SKY/WX    TMP DP  RH WIND       PRES   REMARKS
DULUTH         CLOUDY    35  34  96 NW6       29.65R FOG     WCI  30
ELY            CLOUDY    34  34 100 CALM      29.66R
HIBBING        CLOUDY    32  32 100 CALM      29.66R
EVELETH        CLOUDY    35  34  96 CALM      29.67R
DULUTH HARBOR  CLOUDY    36  34  93 CALM      29.69R
TWO HARBORS    CLOUDY    37  34  87 CALM      29.65R
SILVER BAY     CLOUDY    37  36  93 CALM      29.64R
GRAND MARAIS     N/A     39  33  79 VRB6      29.66R
G MARAIS ARPRT CLOUDY    32  28  86 N5        29.63R FOG     WCI  27
$$
MNZ029>031-032-039>041-046>048-054>057-064-221700-
   West Central Minnesota

CITY           SKY/WX    TMP DP  RH WIND       PRES   REMARKS
FERGUS FALLS   FOG       34  34 100 NW6       29.78R VSB 1/4 WCI  29
WHEATON        CLOUDY    37  37 100 W9        29.78R
MORRIS         CLOUDY    34  34 100 NW9       29.74R FOG     WCI  26
ALEXANDRIA     FOG       34  34 100 W6        29.73R VSB 1/4 WCI  29
ELBOW LAKE     SNOW      32  32 100 NW7       29.74R VSB<1/4 WCI  26
WADENA         CLOUDY    34  34 100 CALM      29.71R FOG
GLENWOOD       SNOW      34  34 100 W5        29.73R VSB<1/4 WCI  30
APPLETON       CLOUDY    36  34  93 NW7       29.76R FOG
ORTONVILLE     CLOUDY    34  32  93 CALM      29.76R FOG
MADISON        CLOUDY    36  36 100 NW3       29.76R FOG
WILLMAR        CLOUDY    36  36 100 CALM      29.75R FOG
$$
MNZ033>034-036-042>043-049>051-058-059-221700-
   Central Minnesota

CITY           SKY/WX    TMP DP  RH WIND       PRES   REMARKS
ST CLOUD       CLOUDY    35  35 100 NW5       29.71R FOG     WCI  31
SAUK CENTRE    CLOUDY    33  33 100 CALM      29.72R FOG
PAYNESVILLE    CLOUDY    34  34 100 NW5       29.73R FOG     WCI  30
AITKIN         FOG       37  34  87 CALM      29.68R VSB 1/2
PINE RIVER     CLOUDY    34  34 100 CALM      29.74R FOG
BRAINERD       CLOUDY    34  34 100 W3        29.71R FOG
STAPLES        CLOUDY    34  34 100 W5        29.71R FOG     WCI  30
LONG PRAIRIE   CLOUDY    34  34 100 CALM      29.72R FOG
LITTLE FALLS   FOG       34  32  93 NW3       29.72R VSB 3/4
LITCHFIELD     CLOUDY    36  36 100 W5        29.73R FOG
BUFFALO        CLOUDY    35  34  97 NW5       29.72R FOG     WCI  31
MAPLE LAKE     CLOUDY    36  36 100 NW3       29.72R FOG
HUTCHINSON     CLOUDY    35  35 100 NW6       29.73R FOG     WCI  30
$$
MNZ037-044-045-052-053-221700-
   East Central Minnesota

CITY           SKY/WX    TMP DP  RH WIND       PRES   REMARKS
PRINCETON      CLOUDY    37  36  93 W5        29.71R FOG
MORA           CLOUDY    34  34 100 CALM      29.71R
CAMBRIDGE      CLOUDY    37  37 100 W3        29.69R FOG
RUSH CITY      CLOUDY    36  34  93 CALM      29.70R FOG
MOOSE LAKE     CLOUDY    34  34 100 W5        29.67R FOG     WCI  30
HINCKLEY       CLOUDY    36  36 100 W3        29.69R FOG
CLOQUET        CLOUDY    34  34 100 W3        29.67R FOG
MCGREGOR       CLOUDY    34  34 100 NW3       29.69R VSB 1/2
$$
MNZ071>073-080-081-089-090-097-098-221700-
   Southwest Minnesota

CITY           SKY/WX    TMP DP  RH WIND       PRES   REMARKS
MONTEVIDEO     FOG       34  34 100 N7        29.76R VSB 1/4 WCI  28
GRANITE FALLS  LGT RAIN  35  35 100 NW9       29.76R VSB 1/2 WCI  27
CANBY          CLOUDY    36  35  95 CALM      29.77R FOG
MARSHALL       CLOUDY    35  34  96 NW13      29.75R WCI  26
REDWOOD FALLS  CLOUDY    35  33  92 NW10      29.74R FOG     WCI  27
OLIVIA         DRIZZLE   34  34 100 NW7       29.73R WCI  28
PIPESTONE      CLOUDY    34  34 100 N13       29.73R FOG     WCI  25
WINDOM         FOG       34  34 100 NW10      29.73R VSB 1   WCI  26
WORTHINGTON    LGT RAIN  34  34 100 NW12      29.74R VSB 1   WCI  25
JACKSON        FOG       32  32 100 NW12      29.73R VSB 3/4 WCI  23
TRACY          CLOUDY    35  35 100 NW12      29.75R FOG     WCI  27
SLAYTON        FOG       33  33 100 NW13      29.73R VSB 1   WCI  24
$$
MNZ065>067-074>077-082>085-091>093-221700-
   South Central Minnesota

CITY           SKY/WX    TMP DP  RH WIND       PRES   REMARKS
MANKATO        FOG       34  34 100 W7        29.72R VSB 1   WCI  28
NEW ULM        CLOUDY    34  34 100 NW10      29.73R FOG     WCI  26
ST JAMES       CLOUDY    34  34 100 NW9       29.74R FOG     WCI  26
FAIRMONT       CLOUDY    35  34  96 NW10      29.72R FOG     WCI  27
GLENCOE        CLOUDY    36  36 100 NW5       29.72R FOG
OWATONNA       FOG       36  34  93 NW3       29.69S VSB 3/4
WASECA         FOG       34  34 100 W5        29.72R VSB 1/4 WCI  30
ALBERT LEA     CLOUDY    36  36 100 NW5       29.69R FOG
$$
MNZ078>079-086>088-094>096-221700-
   Southeast Minnesota

CITY           SKY/WX    TMP DP  RH WIND       PRES   REMARKS
ROCHESTER      FOG       33  33 100 NW8       29.68R VSB 1/4 WCI  26
RED WING       FOG       36  34  93 W6        29.70R VSB 1/4
STANTON        FOG       35  34  95 CALM      29.69R VSB 1/4
DODGE CENTER   FOG       34  34 100 CALM      29.68R VSB 1/4
WINONA         CLOUDY    36  36 100 CALM      29.69R FOG
AUSTIN         FOG       34  34 100 NW3       29.68R VSB 1/4
PRESTON        FOG       33  32  98 NW5       29.68R VSB<1/4 WCI  28
$$
ABBREVIATIONS USED IN REMARKS
   TC - TEMPERATURES IN CELSIUS
  WCI - WIND CHILL INDEX
   HX - HEAT INDEX
  VSB - VISIBILITY
$$




USA.gov is the U.S. government's official web portal to all federal, state and local government web resources and services.